DMSP 5D-2 F13 DEB, 40513

Orbit data source: Space-Track

DMSP 5D-2 F13 DEB, 40513 is space debris in SSO originally from a launch on Fri, 24 Mar 1995 UTC launched from the Air Force Western Test Range (AFWTR). Debris objects in space refer to the collection of defunct objects orbiting the Earth. Examples of debris include non-operational satellites, rocket bodies, and fragments generated from explosions, collisions, or faulty payload assembly.

Loading next visibility...
Identifier
40513, 1995-015CZ
Orbit
SSO
Country
Flag of USUS
Related business
Manufacturer
Unknown
Mission
Spacecraft
Bus & Motor
Unknown
Mass
Unknown
Launch date (UTC)
1995-03-24 (31 years ago)
Launch vehicle
Unknown
Launch site
Air Force Western Test Range (AFWTR)
Object type
Payload
Rocket body
Debris
Shape & HBR
Unknown shape, 0.1 m
Radar Cross Section
Small (<0.1 m²)

Expand to show TLE details & history
Last TLE update: 10 hours ago

TLE from 10 hours ago
0 DMSP 5D-2 F13 DEB
1 40513U 95015CZ  26071.52591616  .00001272  00000-0  58959-3 0  9995
2 40513  98.7684  92.0651 0007405  47.7426 312.4379 14.22548947567829
Epoch: 2026-03-12T12:37Z
TLE epoch observation values (Epoch: 2026-03-12T12:37:19.156Z)
Latitude
0.00002°
Longitude
92.56074°
Altitude
816.068 km
Speed
7.447 km/s
True Right ascension
06h 08m 15s
True Declination
0° 00' 00"
Sunlit
Object was in daylight at epoch
Visualization orbit readout
Latitude
Unknown
Longitude
Unknown
Altitude
Unknown
Speed
Unknown
Apparent Right ascension
Unknown
Apparent Declination
Unknown
Sunlit
N/A
Visualization observer readout
Local Sidereal Time
02:32:59
Azimuth
Unknown
Elevation
Unknown
Doppler factor
Unknown
Orbital elements
Apogee altitude
819.229 km
Perigee altitude
808.578 km
Semi-major axis
7,192.04 km
Eccentricity
0.00074
Inclination
98.7684°
RAAN
92.0651°
Arg. of periapsis
47.7426°
True anomaly
312.37524°
Mean anomaly
312.4379°
Eccentric anomaly
312.40657°
Mean motion
3.55848 °/min
Orbital period
101.17 mins
BSTAR
0.00058959
Loading maneuver chart data...
Computing Atmospheric mass density...

Documentation

Showing up to 5 results
|